Location: Myrnam
(53.6612°N, 111.2289°W)
Time: 05:45:54
(UTC+00:00)

CAS-4A - Visible Passes

Search period start: 05 December 2023 00:00
Search period end: 15 December 2023 00:00
Orbit: 493 x 508 km, 43.0° (Epoch: 04 December)

Date Brightness Start Highest point End Pass type
(mag) Time Alt. Az. Time Alt. Az. Time Alt. Az.
05 Dec ? 00:45:00 10° SW 00:47:34 17° S 00:50:07 10° SE visible
05 Dec ? 02:24:37 10° SW 02:25:34 11° SSW 02:25:34 11° SSW visible
06 Dec ? 00:23:05 10° SW 00:25:39 17° S 00:28:12 10° SE visible
06 Dec ? 02:02:50 10° SW 02:04:02 11° SSW 02:04:55 10° S visible
07 Dec ? 00:01:09 10° SW 00:03:43 17° S 00:06:16 10° SE visible
07 Dec ? 01:41:05 10° SW 01:42:05 11° SSW 01:43:04 10° S visible
08 Dec ? 01:19:20 10° SSW 01:20:07 10° SSW 01:20:53 10° S visible
09 Dec ? 00:57:42 10° SSW 00:58:07 10° SSW 00:58:32 10° SSW visible
